Tracking 29528 objects as of 12-Sep-2024
HD Live streaming from Space Station
objects crossing your sky now

ONEWEB-0093

Track ONEWEB-0093 now!
10-day predictions
ONEWEB-0093 is classified as:


NORAD ID: 45444
Int'l Code: 2020-020W
Perigee: 1,223.6 km
Apogee: 1,226.0 km
Inclination: 87.9 °
Period: 109.8 minutes
Semi major axis: 7595 km
RCS: Unknown
Launch date: March 21, 2020
Source: United Kingdom (UK)
Launch site: TYURATAM MISSILE AND SPACE COMPLEX (TTMTR)
Your satellite tracking list
Your tracking list is empty




NASA's NSSDC Master Catalog

Two Line Element Set (TLE):
1 45444U 20020W   24256.12428848 -.00000440  00000-0 -12764-2 0  9993
2 45444  87.8981 149.1141 0001595  80.5395 279.5913 13.11418693218403
Source of the keplerian elements: AFSPC